Wildwood, NJ

4:24 PM EDT on May 22, 2017 (GMT -0400)
Cape May County

Weather History for KWWD - February, 2015

Change the Weather History Date:

Friday, February 27, 2015

  Actual Average Record
Temperature  
Mean Temperature 20 °F -  
Max Temperature 28 °F 45 °F 71 °F (1997)
Min Temperature 12 °F 31 °F 12 °F (2015)
Degree Days  
Heating Degree Days 45    
Moisture  
Dew Point 12 °F    
Average Humidity 64    
Maximum Humidity 92    
Minimum Humidity 43    
Precipitation  
Precipitation 0.00 in - - ()
Sea Level Pressure  
Sea Level Pressure 30.40 in    
Wind  
Wind Speed 5 mph (NNW)    
Max Wind Speed 14 mph    
Max Gust Speed 21 mph    
Visibility 10 miles    
Events      
Averages and records for this station are not official NWS values.
T = Trace of Precipitation, MM = Missing Value Source: NWS Daily Summary

Daily Weather History Graph

Daily Weather History Graph

Search for Another Location

Airport or City:

Trip Planner

Search our weather history database for the weather conditions in past years. The results will help you decide how hot, cold, wet, or windy it might be!

Date:

Astronomy

Feb. 27, 2015 Rise Set
Actual Time 6:35 AM EST 5:49 PM EST
Civil Twilight 6:08 AM EST 6:16 PM EST
Nautical Twilight 5:37 AM EST 6:47 PM EST
Astronomical Twilight 5:06 AM EST 7:18 PM EST
Moon 12:39 PM EST (2/27) 2:22 AM EST (2/27)
Length of Visible Light 12h 08m
Length of Day
11h 14m
Waxing Gibbous, 70% of the Moon is Illuminated
Feb 27
Waxing Gibbous
Mar 5
Full
Mar 13
Last Quarter
Mar 20
New
Mar 27
First Quarter

Hourly Weather History & Observations

Time (EST) Temp. Windchill Dew Point Humidity Pressure Visibility Wind Dir Wind Speed Gust Speed Precip Events Conditions
12:15 AM 15.8 °F 10.2 °F 10.4 °F 79% 30.15 in 10.0 mi North 3.5 mph - N/A   Clear
12:35 AM 14.0 °F - 10.4 °F 86% 30.17 in 10.0 mi Calm Calm - N/A   Clear
12:55 AM 14.0 °F - 10.4 °F 86% 30.17 in 10.0 mi Calm Calm - N/A   Clear
1:15 AM 15.8 °F - 12.2 °F 86% 30.19 in 10.0 mi Calm Calm - N/A   Clear
1:35 AM 12.2 °F - 6.8 °F 79% 30.19 in 10.0 mi Calm Calm - N/A   Clear
1:55 AM 12.2 °F - 6.8 °F 79% 30.19 in 10.0 mi Calm Calm - N/A   Mostly Cloudy
2:15 AM 14.0 °F - 8.6 °F 79% 30.21 in 10.0 mi Calm Calm - N/A   Mostly Cloudy
2:35 AM 15.8 °F - 10.4 °F 79% 30.21 in 10.0 mi Calm Calm - N/A   Mostly Cloudy
2:55 AM 12.2 °F - 8.6 °F 85% 30.22 in 10.0 mi Calm Calm - N/A   Partly Cloudy
3:15 AM 12.2 °F - 8.6 °F 85% 30.21 in 10.0 mi Calm Calm - N/A   Partly Cloudy
3:35 AM 12.2 °F - 10.4 °F 92% 30.21 in 10.0 mi Calm Calm - N/A   Mostly Cloudy
3:55 AM 12.2 °F - 6.8 °F 79% 30.22 in 10.0 mi Calm Calm - N/A   Partly Cloudy
4:15 AM 12.2 °F - 6.8 °F 79% 30.22 in 10.0 mi Calm Calm - N/A   Clear
4:35 AM 14.0 °F - 8.6 °F 79% 30.24 in 10.0 mi Calm Calm - N/A   Mostly Cloudy
4:55 AM 15.8 °F 10.2 °F 12.2 °F 86% 30.25 in 10.0 mi NE 3.5 mph - N/A   Overcast
5:15 AM 19.4 °F - 15.8 °F 86% 30.25 in 10.0 mi Calm Calm - N/A   Overcast
5:35 AM 19.4 °F 12.8 °F 15.8 °F 86% 30.26 in 10.0 mi NNE 4.6 mph - N/A   Overcast
5:55 AM 19.4 °F 11.5 °F 15.8 °F 86% 30.27 in 10.0 mi NNE 5.8 mph - N/A   Overcast
6:15 AM 19.4 °F 10.4 °F 14.0 °F 80% 30.28 in 10.0 mi North 6.9 mph - N/A   Mostly Cloudy
6:35 AM 19.4 °F 10.4 °F 12.2 °F 74% 30.28 in 10.0 mi NNE 6.9 mph - N/A   Partly Cloudy
6:55 AM 19.4 °F 11.5 °F 12.2 °F 74% 30.30 in 10.0 mi North 5.8 mph - N/A   Clear
7:15 AM 19.4 °F 10.4 °F 12.2 °F 74% 30.31 in 10.0 mi North 6.9 mph - N/A   Clear
7:35 AM 21.2 °F 12.6 °F 14.0 °F 74% 30.32 in 10.0 mi North 6.9 mph - N/A   Clear
7:55 AM 21.2 °F 12.6 °F 14.0 °F 74% 30.34 in 10.0 mi NNE 6.9 mph - N/A   Clear
8:15 AM 23.0 °F 14.7 °F 15.8 °F 74% 30.37 in 10.0 mi North 6.9 mph - N/A   Clear
8:35 AM 24.8 °F 16.1 °F 15.8 °F 69% 30.38 in 10.0 mi NNE 8.1 mph - N/A   Partly Cloudy
8:55 AM 24.8 °F 14.6 °F 15.8 °F 69% 30.38 in 10.0 mi North 10.4 mph - N/A   Partly Cloudy
9:15 AM 26.6 °F 18.2 °F 15.8 °F 64% 30.39 in 10.0 mi NNE 8.1 mph - N/A   Clear
9:35 AM 26.6 °F 18.2 °F 15.8 °F 64% 30.39 in 10.0 mi North 8.1 mph - N/A   Clear
9:55 AM 26.6 °F 20.0 °F 14.0 °F 59% 30.38 in 10.0 mi NNE 5.8 mph - N/A   Clear
10:15 AM 28.4 °F 22.2 °F 15.8 °F 59% 30.38 in 10.0 mi North 5.8 mph - N/A   Clear
10:35 AM 28.4 °F 20.4 °F 15.8 °F 59% 30.40 in 10.0 mi North 8.1 mph - N/A   Clear
10:55 AM 28.4 °F 19.1 °F 15.8 °F 59% 30.40 in 10.0 mi North 10.4 mph - N/A   Clear
11:15 AM 28.4 °F 21.2 °F 15.8 °F 59% 30.38 in 10.0 mi NNW 6.9 mph - N/A   Clear
11:35 AM 28.4 °F 22.2 °F 15.8 °F 59% 30.39 in 10.0 mi WNW 5.8 mph - N/A   Clear
11:55 AM 28.4 °F 20.4 °F 15.8 °F 59% 30.39 in 10.0 mi WNW 8.1 mph - N/A   Clear
12:15 PM 28.4 °F 21.2 °F 15.8 °F 59% 30.41 in 10.0 mi NW 6.9 mph - N/A   Clear
12:35 PM 28.4 °F 21.2 °F 17.6 °F 64% 30.41 in 10.0 mi West 6.9 mph - N/A   Clear
12:55 PM 28.4 °F 21.2 °F 17.6 °F 64% 30.41 in 10.0 mi WNW 6.9 mph - N/A   Scattered Clouds
1:15 PM 28.4 °F 18.0 °F 19.4 °F 69% 30.41 in 10.0 mi WNW 12.7 mph 16.1 mph N/A   Mostly Cloudy
1:35 PM 28.4 °F 17.5 °F 17.6 °F 64% 30.41 in 10.0 mi West 13.8 mph 17.3 mph N/A   Mostly Cloudy
1:55 PM 28.4 °F 17.5 °F 19.4 °F 69% 30.41 in 10.0 mi WNW 13.8 mph 19.6 mph N/A   Mostly Cloudy
2:15 PM 28.4 °F 18.5 °F 17.6 °F 64% 30.42 in 10.0 mi West 11.5 mph 17.3 mph N/A   Scattered Clouds
2:35 PM - - - N/A% 30.43 in 10.0 mi WNW 11.5 mph 20.7 mph N/A   Partly Cloudy
2:55 PM 28.4 °F 20.4 °F 17.6 °F 64% 30.44 in 10.0 mi WNW 8.1 mph 17.3 mph N/A   Mostly Cloudy
3:15 PM 28.4 °F 17.5 °F 15.8 °F 59% 30.45 in 10.0 mi West 13.8 mph 18.4 mph N/A   Mostly Cloudy
3:35 PM 28.4 °F 18.5 °F 15.8 °F 59% 30.46 in 10.0 mi West 11.5 mph 17.3 mph N/A   Mostly Cloudy
3:55 PM 28.4 °F 20.4 °F 14.0 °F 55% 30.46 in 10.0 mi WNW 8.1 mph - N/A   Mostly Cloudy
4:15 PM 28.4 °F 19.1 °F 12.2 °F 51% 30.47 in 10.0 mi WNW 10.4 mph 16.1 mph N/A   Overcast
4:35 PM 28.4 °F 18.0 °F 14.0 °F 55% 30.47 in 10.0 mi West 12.7 mph 16.1 mph N/A   Scattered Clouds
4:55 PM 28.4 °F 19.1 °F 12.2 °F 51% 30.49 in 10.0 mi WNW 10.4 mph - N/A   Clear
5:15 PM 28.4 °F 20.4 °F 10.4 °F 47% 30.50 in 10.0 mi WNW 8.1 mph 17.3 mph N/A   Clear
5:35 PM 28.4 °F 19.7 °F 10.4 °F 47% 30.50 in 10.0 mi WNW 9.2 mph - N/A   Clear
5:55 PM 26.6 °F 21.2 °F 12.2 °F 55% 30.50 in 10.0 mi WNW 4.6 mph - N/A   Clear
6:15 PM 26.6 °F 18.2 °F 10.4 °F 51% 30.51 in 10.0 mi NW 8.1 mph - N/A   Clear
6:35 PM 26.6 °F 18.2 °F 10.4 °F 51% 30.52 in 10.0 mi WNW 8.1 mph 16.1 mph N/A   Clear
6:55 PM 26.6 °F 17.5 °F 10.4 °F 51% 30.54 in 10.0 mi NW 9.2 mph - N/A   Clear
7:15 PM 26.6 °F 17.5 °F 8.6 °F 47% 30.55 in 10.0 mi NW 9.2 mph - N/A   Clear
7:35 PM 26.6 °F 18.2 °F 8.6 °F 47% 30.55 in 10.0 mi NW 8.1 mph - N/A   Clear
7:55 PM 26.6 °F 19.1 °F 8.6 °F 47% 30.56 in 10.0 mi NNW 6.9 mph - N/A   Clear
8:15 PM 26.6 °F 19.1 °F 6.8 °F 43% 30.57 in 10.0 mi NNW 6.9 mph - N/A   Clear
8:35 PM 26.6 °F 18.2 °F 8.6 °F 47% 30.58 in 10.0 mi NNW 8.1 mph - N/A   Clear
8:55 PM 24.8 °F 16.9 °F 8.6 °F 50% 30.58 in 10.0 mi NNW 6.9 mph - N/A   Clear
9:15 PM 24.8 °F 16.1 °F 8.6 °F 50% 30.59 in 10.0 mi NNW 8.1 mph - N/A   Clear
9:35 PM 26.6 °F 19.1 °F 8.6 °F 47% 30.60 in 10.0 mi NNW 6.9 mph - N/A   Clear
9:55 PM 24.8 °F 16.9 °F 8.6 °F 50% 30.60 in 10.0 mi NNW 6.9 mph - N/A   Clear
10:15 PM 24.8 °F 16.1 °F 6.8 °F 46% 30.60 in 10.0 mi NNW 8.1 mph - N/A   Clear
10:35 PM 24.8 °F 19.1 °F 6.8 °F 46% 30.61 in 10.0 mi NNW 4.6 mph - N/A   Clear
10:55 PM 24.8 °F 17.9 °F 6.8 °F 46% 30.61 in 10.0 mi North 5.8 mph - N/A   Clear
11:15 PM 24.8 °F 17.9 °F 6.8 °F 46% 30.62 in 10.0 mi NNW 5.8 mph - N/A   Clear
11:35 PM 24.8 °F 19.1 °F 8.6 °F 50% 30.63 in 10.0 mi NNW 4.6 mph - N/A   Clear
11:55 PM 24.8 °F 16.9 °F 8.6 °F 50% 30.63 in 10.0 mi North 6.9 mph - N/A   Clear